[[{"header":{"parameterUnit":"m.s-1","parameterCategory":1,"la1":30.2991,"la2":30.254,"lo1":-89.0895,"lo2":-89.0444,"dy":0.0017,"dx":0.0017,"nx":28,"ny":28,"refTime":"2023-09-29T21:00:00:Z","depth":0,"parameterNumber":2,"parameterNumberName":"U-component_of_WINDS"},"data":[0,0,0,0,0,0,0,0,0,0,0,0,0,0,0,0,0,0,0,0,0,0,0,0,0,0,0,0,0,0,0,0,0,0,0,0,0,0,0,0,0,0,0,0,0,0,0,0,0,0,0,0,0,0,0,0,0,0,-1.9254,-1.9254,0,-1.926,-1.9261,-1.9261,-1.9168,-1.9166,-1.9163,-1.9161,-1.9169,-1.9172,-1.9174,0,0,0,0,0,0,0,0,0,0,0,0,0,-1.9162,-1.9164,-1.9254,-1.9254,-1.9254,-1.926,-1.9261,-1.9261,-1.9169,-1.9166,-1.9163,-1.916,-1.9168,-1.9171,-1.9174,0,0,0,0,0,0,0,0,0,0,0,0,0,-1.9189,-1.9165,-1.9254,-1.9209,-1.9205,-1.926,-1.9261,-1.9261,-1.9169,-1.9165,-1.9162,-1.9158,-1.9167,-1.9171,-1.9175,-1.9274,0,0,-1.9187,-1.9188,0,0,0,0,0,0,0,0,-1.9187,-1.9192,-1.9215,-1.9212,-1.9208,-1.921,-1.9231,-1.9265,-1.917,-1.9183,-1.9161,-1.9156,-1.9186,-1.9188,-1.9197,-1.9275,-1.9275,-1.9187,-1.9189,-1.9191,-1.9192,0,0,0,0,0,0,0,-1.9186,-1.9191,-1.9256,-1.9216,-1.9211,-1.9188,-1.9188,-1.9237,-1.9205,-1.9181,-1.9175,-1.9177,-1.9183,-1.9194,-1.9197,-1.9275,-1.9187,-1.919,-1.9193,-1.9194,-1.9434,-1.9438,0,0,0,0,0,0,-1.919,-1.919,-1.9256,-1.9257,-1.9188,-1.9193,-1.9193,-1.9213,-1.9205,-1.92,-1.918,-1.9172,-1.9189,-1.9193,-1.9197,-1.9313,-1.9191,-1.9194,-1.9197,-1.943,-1.9435,-1.9439,0,0,0,0,0,0,-1.9188,-1.9196,-1.9256,-1.9222,-1.9227,-1.9199,-1.9222,-1.9215,-1.9226,-1.9203,-1.9197,-1.9197,-1.9186,-1.9191,-1.9255,-1.9312,-1.9196,-1.92,-1.9425,-1.9431,-1.9437,-1.9545,0,0,0,0,0,0,-1.9186,-1.9196,-1.9234,-1.9223,-1.923,-1.9315,-1.9225,-1.9218,-1.9233,-1.9223,-1.9218,-1.9213,-1.9184,-1.925,-1.9259,-1.9315,-1.9203,-1.942,-1.9428,-1.9435,-1.9537,-1.9554,-1.957,0,0,0,0,0,-1.9183,-1.9264,-1.9236,-1.9245,-1.9276,-1.9318,-1.9322,-1.9285,-1.9237,-1.9275,-1.926,-1.9214,-1.9304,-1.9258,-1.9267,-1.9325,-1.9416,-1.9426,-1.9434,-1.9529,-1.9551,-1.9569,0,0,0,0,0,0,-1.9283,-1.9262,-1.9231,-1.9311,-1.9317,-1.9302,-1.9348,-1.931,-1.933,-1.932,-1.9274,-1.9274,-1.9345,-1.9341,-1.929,-1.942,-1.9352,-1.9363,-1.9421,-1.9441,-1.9457,-1.9457,-1.9206,0,0,0,0,0,-1.9314,-1.935,-1.933,-1.9403,-1.9407,-1.9378,-1.9395,-1.9366,-1.9371,-1.9373,-1.9363,-1.9369,-1.9399,-1.942,-1.9446,-1.9535,-1.9533,-1.958,-1.9596,-1.961,-1.962,-1.9668,-1.9688,-1.9469,-1.9469,-1.9469,0,0,-1.938,-1.9373,-1.9398,-1.9423,-1.9424,-1.9462,-1.938,-1.9424,-1.9452,-1.9379,-1.9439,-1.9433,-1.9436,-1.9514,-1.9547,-1.9513,-1.968,-1.9621,-1.9632,-1.9636,-1.9679,-1.97,-1.9718,-1.9475,-1.9474,-1.9473,0,0,-1.9518,-1.9517,-1.9577,-1.958,-1.9582,-1.9562,-1.9576,-1.9568,-1.956,-1.9619,-1.9565,-1.9598,-1.965,-1.9655,-1.9665,-1.9805,-1.9763,-1.9814,-1.9901,-1.9947,-1.9965,-1.998,-2.003,-2.0049,-1.9825,-1.9825,-1.9825,0,-1.96,-1.9655,-1.9613,-1.9661,-1.9673,-1.9608,-1.9669,-1.9674,-1.9685,-1.9696,-1.9656,-1.972,-1.9718,-1.9796,-1.983,-1.984,-1.9855,-1.9815,-1.9965,-1.998,-1.9994,-2.0041,-2.006,-1.9832,-1.9831,-1.983,-1.983,0,-1.9754,-1.9793,-1.9842,-1.9854,-1.9872,-1.9926,-1.9893,-1.9916,-1.9886,-1.987,-1.9931,-1.9926,-1.995,-1.9966,-1.9938,-2.004,-2.0019,-1.9973,-1.9903,-2.0022,-2.0065,-2.0083,-1.9841,-1.9838,-1.9837,-1.9835,0,0,-1.9957,-1.9945,-1.9964,-1.9968,-1.9966,-1.9995,-2.0046,-2.0069,-2.009,-2.01,-2.0142,-2.0187,-2.0145,-2.0156,-2.0127,-2.0168,-2.0279,-2.0117,-2.0116,-2.0148,-2.0392,-2.0427,-2.0449,-2.0251,-2.0254,-2.0257,-2.0392,0,-2.0092,-2.0179,-2.0143,-2.0233,-2.0268,-2.0207,-2.0251,-2.0255,-2.0241,-2.0269,-2.0254,-2.0287,-2.0228,-2.0235,-2.0272,-2.0258,-2.0328,-2.0247,-2.029,-2.0292,-2.0292,-2.0472,-2.0509,-2.0637,-2.0409,-2.0412,-2.0414,0,-2.0262,-2.0278,-2.0371,-2.0362,-2.0376,-2.0417,-2.0434,-2.0462,-2.0465,-2.0452,-2.0464,-2.0426,-2.0476,-2.0406,-2.0474,-2.042,-2.0435,-2.0431,-2.0435,-2.0438,-2.0361,-2.0481,-2.0677,-2.0696,-2.0441,-2.0438,-2.0437,0,-2.0401,-2.0446,-2.0507,-2.0513,-2.0504,-2.0534,-2.0532,-2.0531,-2.0547,-2.0563,-2.0573,-2.0594,-2.0606,-2.0624,-2.0593,-2.0545,-2.0666,-2.0593,-2.0657,-2.0658,-2.0686,-2.0685,-2.0888,-2.0695,-2.0695,-2.0694,-2.0694,0,-2.0556,-2.0616,-2.057,-2.0608,-2.0673,-2.0631,-2.0697,-2.0687,-2.0687,-2.0722,-2.067,-2.0705,-2.0661,-2.0692,-2.0667,-2.0728,-2.0733,-2.0725,-2.0718,-2.073,-2.0731,-2.074,-2.0731,-2.0699,-2.0698,-2.0697,-2.0696,0,-2.0723,-2.0694,-2.0758,-2.0743,-2.0741,-2.079,-2.0778,-2.0813,-2.0795,-2.084,-2.0849,-2.0821,-2.0854,-2.0824,-2.0856,-2.084,-2.0921,-2.09,-2.092,-2.0914,-2.098,-2.0975,-2.1197,-2.1224,-2.1013,-2.1015,-2.1017,0,-2.0824,-2.0868,-2.0859,-2.0879,-2.0879,-2.0912,-2.0928,-2.0888,-2.0907,-2.0913,-2.0947,-2.0975,-2.0996,-2.1052,-2.1035,-2.1059,-2.1039,-2.1115,-2.1043,-2.1053,-2.1041,-2.1039,-2.1044,-2.1131,-2.1133,-2.1135,-2.1137,0,-2.1007,-2.099,-2.1015,-2.1035,-2.1055,-2.1069,-2.1079,-2.1098,-2.1057,-2.1081,-2.1113,-2.1129,-2.1161,-2.1191,-2.1209,-2.1207,-2.1166,-2.116,-2.1176,-2.1189,-2.1199,-2.1195,-2.0961,-2.1155,-2.1153,-2.1152,-2.1151,-2.115,-2.1144,-2.1181,-2.118,-2.1209,-2.1212,-2.1222,-2.1254,-2.124,-2.1266,-2.1289,-2.1264,-2.1304,-2.1305,-2.1326,-2.1328,-2.1359,-2.1328,-2.1351,-2.1357,-2.1364,-2.1373,-2.1193,-2.1363,-2.1362,-2.1361,-2.1361,-2.1361,0,-2.1325,-2.1321,-2.1348,-2.1363,-2.1386,-2.1344,-2.1352,-2.1375,-2.1411,-2.1415,-2.1436,-2.1474,-2.1502,-2.1487,-2.1511,-2.1539,-2.152,-2.1546,-2.1544,-2.1545,-2.14,-2.1384,-2.1561,-2.1561,-2.1561,-2.1561,-2.1561,-2.1561,-2.1422,-2.1481,-2.1465,-2.1525,-2.1521,-2.1559,-2.1568,-2.1577,-2.158,-2.1625,-2.1647,-2.1637,-2.1634,-2.1657,-2.1681,-2.1676,-2.1687,-2.1721,-2.1709,-2.1574,-2.1555,-2.1536,-2.1521,-2.1723,-2.1723,-2.1851,-2.1852,-2.1853]},{"header":{"parameterUnit":"m.s-1","parameterCategory":1,"la1":30.2991,"la2":30.254,"lo1":-89.0895,"lo2":-89.0444,"dy":0.0017,"dx":0.0017,"nx":28,"ny":28,"refTime":"2023-09-29T21:00:00:Z","depth":0,"parameterNumber":3,"parameterNumberName":"V-component_of_WINDS"},"data":[0,0,0,0,0,0,0,0,0,0,0,0,0,0,0,0,0,0,0,0,0,0,0,0,0,0,0,0,0,0,0,0,0,0,0,0,0,0,0,0,0,0,0,0,0,0,0,0,0,0,0,0,0,0,0,0,0,0,0.6819,0.6818,0,0.6781,0.6781,0.6781,0.6764,0.6764,0.6764,0.6764,0.6721,0.672,0.6719,0,0,0,0,0,0,0,0,0,0,0,0,0,0.6872,0.6871,0.6819,0.6818,0.6818,0.6781,0.6781,0.678,0.6764,0.6764,0.6764,0.6764,0.6722,0.672,0.6719,0,0,0,0,0,0,0,0,0,0,0,0,0,0.6843,0.687,0.6819,0.6805,0.6804,0.6782,0.6781,0.678,0.6764,0.6764,0.6764,0.6764,0.6722,0.6721,0.6719,0.6706,0,0,0.6713,0.6713,0,0,0,0,0,0,0,0,0.6844,0.6841,0.6808,0.6806,0.6804,0.6777,0.6784,0.6755,0.6764,0.6779,0.6764,0.6764,0.674,0.6737,0.6729,0.6704,0.6702,0.6713,0.6712,0.6711,0.6711,0,0,0,0,0,0,0,0.6846,0.6842,0.6804,0.6807,0.6805,0.68,0.6796,0.6778,0.6759,0.6777,0.6776,0.6772,0.6739,0.6731,0.6728,0.6702,0.6713,0.6712,0.6711,0.671,0.6665,0.6664,0,0,0,0,0,0,0.6851,0.6844,0.6805,0.6803,0.6825,0.6799,0.6794,0.6786,0.6759,0.6755,0.6772,0.6772,0.6734,0.673,0.6727,0.671,0.6711,0.671,0.6709,0.6665,0.6664,0.6664,0,0,0,0,0,0,0.6852,0.6848,0.6806,0.6823,0.6817,0.6798,0.6788,0.6785,0.6777,0.6755,0.6751,0.6768,0.6734,0.6729,0.6712,0.6708,0.6709,0.6707,0.6665,0.6665,0.6664,0.6677,0,0,0,0,0,0,0.6854,0.6848,0.6844,0.6823,0.6817,0.6793,0.6788,0.6784,0.6775,0.6774,0.675,0.6747,0.6734,0.6714,0.671,0.6706,0.6706,0.6665,0.6665,0.6664,0.6677,0.6678,0.6678,0,0,0,0,0,0.6856,0.6848,0.6844,0.684,0.6811,0.6793,0.6789,0.6776,0.6775,0.677,0.6756,0.6747,0.671,0.6713,0.6708,0.6703,0.6665,0.6665,0.6664,0.6677,0.6677,0.6678,0,0,0,0,0,0,0.6868,0.6845,0.684,0.6826,0.6812,0.6791,0.6784,0.6777,0.6762,0.6761,0.6744,0.6738,0.6723,0.6711,0.6715,0.6689,0.6687,0.6685,0.6698,0.6698,0.6699,0.6701,0.6705,0,0,0,0,0,0.6869,0.6858,0.6838,0.6827,0.6821,0.6804,0.6795,0.6786,0.677,0.6764,0.6748,0.6732,0.6717,0.6707,0.6691,0.6675,0.667,0.667,0.667,0.6671,0.6669,0.666,0.666,0.6663,0.6663,0.6663,0,0,0.6871,0.6857,0.6851,0.683,0.6818,0.6805,0.6799,0.6786,0.6776,0.6761,0.6745,0.6733,0.6713,0.6697,0.6689,0.6687,0.6667,0.667,0.6671,0.6669,0.666,0.6659,0.6659,0.6663,0.6663,0.6663,0,0,0.6869,0.6857,0.6847,0.6836,0.6818,0.6807,0.6805,0.6785,0.6777,0.676,0.6749,0.6736,0.671,0.6697,0.6687,0.668,0.6671,0.6675,0.6677,0.6668,0.6668,0.6668,0.6665,0.6664,0.6674,0.6674,0.6674,0,0.6873,0.6855,0.6842,0.6831,0.6821,0.6809,0.6798,0.6787,0.6765,0.6758,0.6756,0.6724,0.671,0.669,0.6688,0.6681,0.6677,0.6677,0.6669,0.6669,0.6668,0.6665,0.6664,0.6674,0.6674,0.6674,0.6674,0,0.6861,0.6849,0.6842,0.6823,0.6813,0.6801,0.6786,0.6777,0.6769,0.6758,0.6741,0.6724,0.6705,0.6699,0.6691,0.6678,0.6678,0.6673,0.667,0.6669,0.6666,0.6665,0.6675,0.6675,0.6675,0.6675,0,0,0.6864,0.6839,0.6837,0.6828,0.6808,0.6798,0.6786,0.6769,0.6761,0.6746,0.6735,0.6713,0.6709,0.6698,0.6687,0.668,0.6675,0.6675,0.6675,0.6676,0.666,0.6664,0.6663,0.667,0.6669,0.6669,0.6662,0,0.6859,0.6838,0.6827,0.681,0.6798,0.6787,0.6776,0.6762,0.6751,0.6739,0.6726,0.6711,0.6707,0.67,0.6692,0.6677,0.6672,0.6678,0.6658,0.6657,0.6663,0.6661,0.6665,0.6659,0.6661,0.666,0.666,0,0.6849,0.6837,0.6819,0.6801,0.6796,0.6787,0.677,0.6759,0.6742,0.6735,0.6723,0.6713,0.6698,0.6697,0.6676,0.6681,0.6672,0.6663,0.6663,0.666,0.6659,0.6658,0.6657,0.6656,0.6658,0.6658,0.6659,0,0.6854,0.6832,0.6819,0.6811,0.679,0.6784,0.6774,0.6758,0.6749,0.6734,0.6728,0.6711,0.6701,0.6688,0.6673,0.6674,0.6654,0.6651,0.6647,0.6647,0.6643,0.6643,0.664,0.6638,0.6638,0.6638,0.6638,0,0.6848,0.6838,0.682,0.6812,0.68,0.6787,0.6775,0.6764,0.675,0.6739,0.6728,0.6717,0.6699,0.6686,0.6674,0.6658,0.6654,0.6647,0.6644,0.6648,0.6649,0.6642,0.6642,0.6637,0.6637,0.6638,0.6638,0,0.6851,0.6839,0.6824,0.6805,0.68,0.6792,0.6776,0.6767,0.6756,0.6742,0.6738,0.672,0.6704,0.6688,0.6666,0.6658,0.6643,0.6639,0.6649,0.6647,0.6644,0.6644,0.6635,0.6633,0.6633,0.6633,0.6633,0,0.6848,0.6841,0.6822,0.6814,0.6806,0.6794,0.6784,0.6771,0.6761,0.6743,0.6736,0.6719,0.6705,0.668,0.6664,0.6647,0.6643,0.6641,0.664,0.6644,0.6642,0.6643,0.6642,0.6641,0.6641,0.6641,0.6641,0,0.6845,0.684,0.6828,0.6814,0.6804,0.6792,0.6779,0.6773,0.6757,0.6747,0.6731,0.6721,0.6699,0.6682,0.6664,0.6653,0.6644,0.6642,0.664,0.6644,0.665,0.6646,0.665,0.6642,0.6642,0.6642,0.6642,0.6642,0.6845,0.6838,0.6824,0.6811,0.68,0.6789,0.678,0.6768,0.6756,0.6738,0.673,0.6715,0.6698,0.6673,0.6662,0.6648,0.6646,0.6643,0.6642,0.6642,0.6643,0.6652,0.6645,0.6645,0.6645,0.6645,0.6645,0,0.6841,0.6832,0.682,0.6804,0.6794,0.6788,0.6774,0.6765,0.6752,0.6738,0.6725,0.6707,0.6691,0.6675,0.6658,0.665,0.6646,0.6646,0.6646,0.6644,0.6646,0.6649,0.665,0.665,0.665,0.665,0.665,0.665,0.6838,0.6826,0.6819,0.68,0.6791,0.6776,0.6769,0.6758,0.6747,0.6728,0.6715,0.6705,0.669,0.6672,0.6657,0.6652,0.6646,0.6648,0.6642,0.6644,0.6644,0.6643,0.6646,0.6646,0.6646,0.6641,0.6641,0.6641]}]]